Weather History for Manistique, MI

Change the Weather History Date:

Thursday, February 13, 2014

  Actual Average Record
Temperature  
Mean Temperature 10 °F -  
Max Temperature 24 °F 25 °F 41 °F (1984)
Min Temperature -3 °F 8 °F -15 °F (1971)
Degree Days  
Heating Degree Days 54    
Moisture  
Dew Point 14 °F    
Average Humidity 87    
Maximum Humidity 95    
Minimum Humidity 71    
Precipitation  
Precipitation 0.00 in - - ()
Sea Level Pressure  
Sea Level Pressure 29.72 in    
Wind  
Wind Speed 7 mph (SE)    
Max Wind Speed 18 mph    
Max Gust Speed 26 mph    
Visibility 6 miles    
Events Snow    
Averages and records for this station are not official NWS values.
T = Trace of Precipitation, MM = Missing Value Source: NWS Daily Summary

Daily Weather History Graph

Daily Weather History Graph

Search for Another Location

Airport:

Trip Planner

Search our weather history database for the weather conditions in past years. The results will help you decide how hot, cold, wet, or windy it might be!

Date:

Astronomy

Feb. 13, 2014 Rise Set
Actual Time 7:50 AM EST 6:08 PM EST
Civil Twilight 7:19 AM EST 6:38 PM EST
Nautical Twilight 6:44 AM EST 7:14 PM EST
Astronomical Twilight 6:09 AM EST 7:48 PM EST
Moon 5:16 PM EST (2/13) 6:44 AM EST (2/13)
Length of Visible Light 11h 19m
Length of Day
10h 17m
Waxing Gibbous, 98% of the Moon is Illuminated
Feb 13
Waxing Gibbous
Feb 14
Full
Feb 22
Last Quarter
Mar 1
New
Mar 8
First Quarter

Hourly Weather History & Observations

Time (EST) Temp. Windchill Dew Point Humidity Pressure Visibility Wind Dir Wind Speed Gust Speed Precip Events Conditions
12:15 AM 1.6 °F - -1.8 °F 86% 29.99 in 10.0 mi Calm Calm - N/A   Clear
12:35 AM 0.3 °F - -2.7 °F 87% 29.98 in 7.0 mi Calm Calm - N/A   Clear
12:55 AM -1.1 °F - -4.7 °F 85% 29.98 in 10.0 mi Calm Calm - N/A   Clear
1:15 AM -0.8 °F -12.5 °F -4.4 °F 85% 29.98 in 7.0 mi West 5.8 mph - N/A   Clear
1:35 AM -2.6 °F -12.9 °F -6.2 °F 85% 29.98 in 10.0 mi WNW 4.6 mph - N/A   Clear
1:55 AM -2.4 °F - -6.3 °F 83% 29.97 in 10.0 mi Calm Calm - N/A   Clear
2:14 AM -3.5 °F - -7.8 °F 82% 29.96 in 10.0 mi Calm Calm - N/A   Scattered Clouds
2:35 AM -3.6 °F - -8.1 °F 81% 29.96 in 10.0 mi Calm Calm - N/A   Mostly Cloudy
2:55 AM -2.9 °F - -7.2 °F 82% 29.95 in 10.0 mi Calm Calm - N/A   Overcast
3:15 AM -1.3 °F - -5.4 °F 83% 29.93 in 10.0 mi Calm Calm - N/A   Overcast
3:35 AM 4.1 °F - 0.9 °F 86% 29.94 in 7.0 mi Calm Calm - N/A   Overcast
3:55 AM 3.4 °F - -0.4 °F 84% 29.94 in 10.0 mi Calm Calm - N/A   Overcast
4:15 AM 5.4 °F - 1.9 °F 86% 29.93 in 10.0 mi Calm Calm - N/A   Overcast
4:35 AM 7.0 °F 0.1 °F 3.6 °F 86% 29.93 in 10.0 mi East 3.5 mph - N/A   Overcast
4:55 AM 8.2 °F - 5.0 °F 87% 29.92 in 10.0 mi Calm Calm - N/A   Overcast
5:15 AM 9.5 °F - 6.6 °F 88% 29.92 in 10.0 mi Calm Calm - N/A   Overcast
5:35 AM 10.8 °F - 7.7 °F 87% 29.92 in 10.0 mi Calm Calm - N/A   Overcast
5:54 AM 11.3 °F - 8.4 °F 88% 29.90 in 10.0 mi Calm Calm - N/A   Overcast
6:15 AM 12.2 °F 2.9 °F 9.5 °F 89% 29.89 in 10.0 mi East 5.8 mph - N/A   Overcast
6:35 AM 13.8 °F 8.0 °F 11.3 °F 90% 29.88 in 7.0 mi SE 3.5 mph - N/A   Overcast
6:55 AM 18.7 °F 9.5 °F 17.4 °F 95% 29.87 in 7.0 mi SE 6.9 mph - N/A   Overcast
7:15 AM 20.5 °F 10.8 °F 18.5 °F 92% 29.86 in 7.0 mi SE 8.1 mph - N/A   Overcast
7:35 AM 21.6 °F 11.3 °F 19.4 °F 91% 29.86 in 7.0 mi SSE 9.2 mph - N/A   Overcast
7:55 AM 21.9 °F 10.4 °F 19.8 °F 91% 29.84 in 7.0 mi SSE 11.5 mph 17.3 mph N/A   Overcast
8:15 AM 21.9 °F 9.8 °F 19.9 °F 92% 29.84 in 5.0 mi SE 12.7 mph 21.9 mph N/A   Overcast
8:35 AM 21.9 °F 8.2 °F 19.9 °F 92% 29.83 in 4.0 mi SE 16.1 mph 23.0 mph N/A   Overcast
8:55 AM 21.9 °F 8.2 °F 19.6 °F 91% 29.83 in 4.0 mi SE 16.1 mph 21.9 mph N/A   Overcast
9:15 AM 22.1 °F 7.6 °F 19.6 °F 90% 29.82 in 4.0 mi SE 18.4 mph 26.5 mph N/A   Overcast
9:34 AM 22.1 °F 8.0 °F 19.2 °F 89% 29.79 in 7.0 mi SE 17.3 mph 24.2 mph N/A   Overcast
9:55 AM 22.1 °F 8.5 °F 18.9 °F 87% 29.78 in 7.0 mi SE 16.1 mph 24.2 mph N/A   Overcast
10:15 AM 22.1 °F 8.0 °F 18.5 °F 86% 29.78 in 7.0 mi SE 17.3 mph 24.2 mph N/A   Overcast
10:35 AM 22.1 °F 9.5 °F 18.7 °F 87% 29.77 in 10.0 mi SE 13.8 mph 18.4 mph N/A   Overcast
10:55 AM 22.1 °F 8.9 °F 18.5 °F 86% 29.77 in 10.0 mi SE 15.0 mph 20.7 mph N/A   Overcast
11:15 AM 22.1 °F 8.9 °F 17.8 °F 83% 29.76 in 7.0 mi SE 15.0 mph 25.3 mph N/A   Overcast
11:35 AM 21.7 °F 9.6 °F 18.3 °F 87% 29.75 in 7.0 mi SE 12.7 mph 20.7 mph N/A   Overcast
11:55 AM 21.6 °F 9.3 °F 16.7 °F 82% 29.73 in 7.0 mi SE 12.7 mph 20.7 mph N/A   Overcast
12:15 PM 21.2 °F 8.9 °F 15.8 °F 80% 29.72 in 7.0 mi SE 12.7 mph 18.4 mph N/A   Overcast
12:35 PM 21.6 °F 7.3 °F 15.4 °F 77% 29.70 in 7.0 mi SE 17.3 mph 21.9 mph N/A   Overcast
12:55 PM 21.4 °F 7.1 °F 15.8 °F 79% 29.70 in 1.5 mi SE 17.3 mph 21.9 mph N/A Snow Light Snow
1:15 PM 21.0 °F 8.6 °F 16.5 °F 83% 29.68 in 0.8 mi SE 12.7 mph 20.7 mph N/A Snow Light Snow
1:35 PM 20.7 °F 6.6 °F 17.1 °F 86% 29.67 in 0.8 mi SE 16.1 mph 23.0 mph N/A Snow Light Snow
1:55 PM 20.7 °F 6.1 °F 18.0 °F 89% 29.66 in 0.5 mi SE 17.3 mph 23.0 mph N/A Snow Light Snow
2:35 PM 21.2 °F 6.4 °F 18.3 °F 89% 29.62 in 0.8 mi SE 18.4 mph 21.9 mph N/A Snow Light Snow
2:55 PM 21.4 °F 7.5 °F 19.0 °F 91% 29.61 in 0.8 mi SE 16.1 mph 21.9 mph N/A Snow Light Snow
3:15 PM 21.6 °F 7.8 °F 19.2 °F 91% 29.60 in 0.5 mi SE 16.1 mph 24.2 mph N/A Snow Light Snow
3:35 PM 21.7 °F 8.5 °F 19.2 °F 90% 29.58 in 0.5 mi SE 15.0 mph 20.7 mph N/A Snow Light Snow
3:55 PM 21.9 °F 9.2 °F 19.2 °F 89% 29.58 in 1.0 mi SE 13.8 mph 21.9 mph N/A Snow Light Snow
4:15 PM 22.5 °F 8.9 °F 18.7 °F 85% 29.57 in 1.8 mi SE 16.1 mph 23.0 mph N/A Snow Light Snow
4:35 PM 22.8 °F 9.4 °F 18.5 °F 83% 29.56 in 3.0 mi SE 16.1 mph 24.2 mph N/A Snow Light Snow
4:55 PM 23.5 °F 11.3 °F 16.3 °F 74% 29.55 in 10.0 mi SE 13.8 mph 18.4 mph N/A Snow Light Snow
5:15 PM 23.9 °F 11.7 °F 15.8 °F 71% 29.55 in 5.0 mi SSE 13.8 mph 24.2 mph N/A Snow Light Snow
5:35 PM 24.1 °F 12.5 °F 15.8 °F 71% 29.55 in 3.0 mi SE 12.7 mph 21.9 mph N/A Snow Light Snow
5:55 PM 23.9 °F 11.2 °F 17.6 °F 77% 29.54 in 10.0 mi SE 15.0 mph 21.9 mph N/A Snow Light Snow
6:15 PM 24.3 °F 12.7 °F 17.6 °F 76% 29.53 in 10.0 mi SE 12.7 mph 18.4 mph N/A   Overcast
6:35 PM 23.7 °F 13.3 °F 18.3 °F 80% 29.53 in 10.0 mi SE 10.4 mph 17.3 mph N/A Snow Light Snow
6:55 PM 23.5 °F 12.4 °F 19.4 °F 84% 29.53 in 10.0 mi SE 11.5 mph 19.6 mph N/A   Overcast
7:15 PM 23.4 °F 11.6 °F 20.1 °F 87% 29.53 in 10.0 mi ESE 12.7 mph - N/A   Overcast
7:35 PM 24.1 °F 12.5 °F 20.5 °F 86% 29.52 in 3.0 mi SE 12.7 mph 17.3 mph N/A Snow Light Snow
7:55 PM 23.9 °F 10.8 °F 21.2 °F 89% 29.52 in 1.8 mi SE 16.1 mph 21.9 mph N/A Snow Light Snow
8:14 PM 23.9 °F 11.7 °F 21.6 °F 91% 29.52 in 2.5 mi SE 13.8 mph 19.6 mph N/A Snow Light Snow
8:35 PM 23.5 °F 10.8 °F 21.2 °F 91% 29.51 in 1.8 mi SSE 15.0 mph 20.7 mph N/A Snow Light Snow
8:55 PM 23.5 °F 11.8 °F 21.6 °F 92% 29.50 in 3.0 mi SE 12.7 mph 19.6 mph N/A Snow Light Snow
9:15 PM 23.5 °F 11.8 °F 21.6 °F 92% 29.50 in 4.0 mi SE 12.7 mph 18.4 mph N/A Snow Light Snow
9:35 PM 23.5 °F 13.7 °F 21.6 °F 92% 29.50 in 4.0 mi SE 9.2 mph 18.4 mph N/A Snow Light Snow
9:55 PM 23.0 °F 11.7 °F 21.2 °F 93% 29.49 in 5.0 mi SE 11.5 mph 16.1 mph N/A Snow Light Snow
10:15 PM 23.0 °F 11.1 °F 21.2 °F 93% 29.48 in 7.0 mi SE 12.7 mph 18.4 mph N/A Snow Light Snow
10:35 PM 23.0 °F 10.6 °F 21.2 °F 93% 29.48 in 4.0 mi ESE 13.8 mph 17.3 mph N/A Snow Light Snow
10:54 PM 23.0 °F 12.4 °F 21.2 °F 93% 29.47 in 3.0 mi ESE 10.4 mph - N/A Snow Light Snow
11:15 PM 23.0 °F 12.4 °F 21.2 °F 93% 29.47 in 2.5 mi ESE 10.4 mph 18.4 mph N/A Snow Light Snow
11:35 PM 23.0 °F 11.7 °F 21.2 °F 93% 29.46 in 2.0 mi East 11.5 mph 16.1 mph N/A Snow Light Snow
11:55 PM 22.8 °F 12.2 °F 21.0 °F 93% 29.45 in 2.0 mi East 10.4 mph - N/A Snow Light Snow